Terug naar catalogus

SL-6 R/B(2)

ActiefHEO
NORAD 24803·ROCKET BODY·🇷🇺 Russia

Gelanceerd May 14, 1997 vanaf Plesetsk Cosmodrome

Loading…

Volgende Passages (komende 24 uur)

TLE

VerouderendSource: Space-Track

Epoch: Sep 2, 2026, 11:54 UTC

1 24803U 97022D   26245.49625966 -.00000493  00000-0  00000-0 0  9990
2 24803  68.5153 289.7616 6042762  63.9336 345.1930  2.04232624218543

Volg SL-6 R/B(2) in realtime met AllMySat

Download on the App Store